RH
24 25 27 27 31 40 47 50 49 45 44 45 45 46 52 54 54 53 53 51 50 50 52 52 52 60 60
28 29 30 31 37 40 42 43 48 40 43 49 53 49 49 52 51 50 51 50 55 54 54 52 53 53 52
38 35 38 41 41 43 37 34 38 43 48 49 52 52 52 53 53 54 58 53 48 47 46 48 50 50 52
48 46 46 52 51 45 37 41 43 47 47 45 46 46 43 45 41 38 37 39 40 41 42 42 42 43 46
46 54 56 50 49 48 50 46 51 59 52 58 59 61 62 60 50 43 43 47 48 46 46 50 52 53 55
61 56 52 55 54 57 54 60 58 76 84 82 85 77 76 70 67 75 75 77 82 85 83 75 55 51 53
57 56 58 58 60 67 78 86 85 83 91 81 85 82 71 67 75 75 80 86 89 97 95 91 83 67 55
60 59 63 74 91 93 91 89 89 87 86 79 80 77 76 67 68 70 77 87 96 98 98 98 94 87 75
58 76 94 97 98 94 92 94 90 89 86 88 85 83 81 77 71 70 80 91 93 95 90 90 95 94 89
90 91 92 95 99 98 97 95 94 90 89 96 93 93 89 82 80 81 87 88 95 98 97 92 87 88 84
89 91 95 96 97 98 99 98 94 93 94 98 95 97 94 85 80 84 87 94 97 98 98 97 86 79 76
94 96 96 96 97 98 98 98 98 96 97 99 97 98 89 88 87 84 91 97 97 98 94 87 74 67 61
96 96 97 97 97 97 97 98 97 97 98 98 98 97 90 94 91 90 90 91 98 98 95 70 76 51 44
93 89 87 87 94 98 97 97 96 96 97 96 98 93 92 94 94 89 92 93 93 97 86 72 66 66 61
86 82 79 77 86 97 98 97 98 97 96 93 90 89 91 93 93 97 95 96 96 91 91 75 69 68 63
82 80 76 78 83 95 98 98 97 97 97 97 89 87 89 95 97 95 97 98 98 98 93 89 69 66 65
73 75 77 78 79 86 96 98 97 97 98 98 95 88 87 97 97 97 97 96 98 98 97 91 78 67 65